| time (UTC) | temp C | wind direction | speed KPH | gust KPH | rain 1hr cm | rain 24hr cm | rain mn cm | humidity % | barometer mb |
| 20260507050052 | 5 | 360 | 4.8 | 17.7 | 0.00 | 0.56 | 0.00 | 68 | 1011.9 |
| 20260507044531 | 5 | 271 | 4.8 | 12.9 | 0.00 | 0.56 | 0.00 | 69 | 1011.9 |
| 20260507043026 | 5 | 273 | 4.8 | 16.1 | 0.00 | 0.56 | 0.00 | 68 | 1011.9 |
| 20260507041526 | 5 | 360 | 3.2 | 16.1 | 0.00 | 0.56 | 0.00 | 66 | 1012.0 |
| 20260507040023 | 5 | 360 | 4.8 | 17.7 | 0.00 | 0.61 | 0.56 | 65 | 1012.1 |
| 20260507034519 | 5 | 269 | 6.4 | 14.5 | 0.00 | 0.61 | 0.56 | 65 | 1011.9 |
| 20260507033028 | 5 | 360 | 8.0 | 16.1 | 0.00 | 0.61 | 0.56 | 66 | 1011.8 |
| 20260507031515 | 5 | 295 | 4.8 | 16.1 | 0.00 | 0.61 | 0.56 | 69 | 1011.8 |
| 20260507030013 | 5 | 273 | 8.0 | 14.5 | 0.00 | 0.66 | 0.56 | 74 | 1011.9 |
| 20260507024515 | 5 | 360 | 4.8 | 12.9 | 0.00 | 0.66 | 0.56 | 79 | 1011.9 |
| 20260507023009 | 5 | 294 | 4.8 | 9.7 | 0.00 | 0.66 | 0.56 | 82 | 1012.0 |
| 20260507021517 | 6 | 360 | 4.8 | 12.9 | 0.00 | 0.66 | 0.56 | 83 | 1011.8 |
| 20260507020006 | 6 | 360 | 4.8 | 9.7 | 0.00 | 0.66 | 0.56 | 84 | 1011.8 |
| 20260507014505 | 6 | 360 | 6.4 | 14.5 | 0.00 | 0.66 | 0.56 | 84 | 1011.9 |
| 20260507013007 | 6 | 360 | 4.8 | 9.7 | 0.00 | 0.66 | 0.56 | 84 | 1011.8 |
| 20260507011511 | 6 | 360 | 4.8 | 12.9 | 0.00 | 0.66 | 0.56 | 84 | 1011.7 |
| 20260507010002 | 6 | 360 | 3.2 | 8.0 | 0.00 | 0.66 | 0.56 | 84 | 1011.5 |
| 20260507004600 | 6 | 360 | 3.2 | 8.0 | 0.00 | 0.66 | 0.56 | 84 | 1011.3 |
| 20260507003059 | 6 | 290 | 1.6 | 8.0 | 0.00 | 0.66 | 0.56 | 84 | 1011.2 |
| 20260507001605 | 6 | 263 | 3.2 | 8.0 | 0.00 | 0.66 | 0.56 | 84 | 1011.2 |
| 20260507000058 | 6 | 360 | 3.2 | 9.7 | 0.00 | 0.71 | 0.56 | 83 | 1011.1 |
| 20260506234621 | 6 | 270 | 4.8 | 12.9 | 0.00 | 0.71 | 0.56 | 83 | 1011.1 |
| 20260506233055 | 6 | 360 | 6.4 | 14.5 | 0.00 | 0.71 | 0.56 | 83 | 1011.0 |
| 20260506231555 | 6 | 219 | 8.0 | 16.1 | 0.00 | 0.71 | 0.56 | 82 | 1011.0 |
| 20260506230051 | 6 | 360 | 4.8 | 16.1 | 0.00 | 0.79 | 0.56 | 82 | 1010.8 |
| 20260506224550 | 6 | 360 | 6.4 | 14.5 | 0.00 | 0.79 | 0.56 | 82 | 1010.7 |
| 20260506223056 | 6 | 360 | 4.8 | 14.5 | 0.00 | 0.79 | 0.56 | 83 | 1010.6 |
| 20260506221547 | 6 | 360 | 4.8 | 11.3 | 0.00 | 0.79 | 0.56 | 83 | 1010.4 |
| 20260506220047 | 6 | 360 | 3.2 | 8.0 | 0.00 | 0.84 | 0.56 | 83 | 1010.3 |
| 20260506214546 | 7 | 360 | 3.2 | 9.7 | 0.00 | 0.84 | 0.56 | 82 | 1010.4 |
| 20260506213044 | 7 | 360 | 3.2 | 9.7 | 0.00 | 0.84 | 0.56 | 81 | 1010.4 |
| 20260506211543 | 7 | 360 | 3.2 | 8.0 | 0.00 | 0.84 | 0.56 | 81 | 1010.3 |
| 20260506210044 | 7 | 360 | 3.2 | 9.7 | 0.00 | 0.84 | 0.56 | 82 | 1010.4 |
| 20260506204552 | 7 | 228 | 4.8 | 12.9 | 0.00 | 0.84 | 0.56 | 82 | 1010.1 |
| 20260506203042 | 7 | 277 | 4.8 | 9.7 | 0.00 | 0.84 | 0.56 | 81 | 1010.2 |
| 20260506201542 | 8 | 360 | 4.8 | 9.7 | 0.00 | 0.84 | 0.56 | 80 | 1010.1 |
| 20260506200051 | 8 | 360 | 4.8 | 9.7 | 0.00 | 0.84 | 0.56 | 80 | 1010.2 |
| 20260506194548 | 8 | 239 | 3.2 | 9.7 | 0.00 | 0.84 | 0.56 | 79 | 1010.1 |
| 20260506193040 | 8 | 360 | 4.8 | 8.0 | 0.00 | 0.84 | 0.56 | 79 | 1010.2 |
| 20260506191539 | 8 | 193 | 3.2 | 12.9 | 0.00 | 0.84 | 0.56 | 78 | 1010.2 |
| 20260506190040 | 8 | 360 | 4.8 | 14.5 | 0.00 | 0.84 | 0.56 | 80 | 1010.2 |
| 20260506184539 | 8 | 360 | 3.2 | 12.9 | 0.00 | 0.84 | 0.56 | 81 | 1010.0 |
| 20260506183043 | 8 | 164 | 4.8 | 11.3 | 0.00 | 0.84 | 0.56 | 81 | 1010.1 |
| 20260506181537 | 8 | 228 | 3.2 | 9.7 | 0.00 | 0.84 | 0.56 | 82 | 1010.3 |
| 20260506180034 | 8 | 360 | 3.2 | 6.4 | 0.00 | 0.84 | 0.56 | 81 | 1010.2 |
| 20260506174533 | 8 | 360 | 3.2 | 9.7 | 0.00 | 0.84 | 0.56 | 83 | 1010.0 |
| 20260506173032 | 7 | 360 | 1.6 | 6.4 | 0.00 | 0.84 | 0.56 | 80 | 1010.0 |
| 20260506171541 | 7 | 300 | 0.0 | 8.0 | 0.00 | 0.84 | 0.56 | 82 | 1010.1 |
| 20260506170035 | 8 | 257 | 0.0 | 1.6 | 0.00 | 0.84 | 0.56 | 80 | 1010.2 |
| 20260506164530 | 8 | 139 | 0.0 | 4.8 | 0.00 | 0.84 | 0.56 | 83 | 1010.1 |
| 20260506163030 | 8 | 141 | 0.0 | 3.2 | 0.00 | 0.84 | 0.56 | 83 | 1010.0 |
| 20260506161537 | 8 | 158 | 0.0 | 0.0 | 0.00 | 0.84 | 0.56 | 83 | 1010.0 |
| 20260506160039 | 8 | 165 | 1.6 | 6.4 | 0.00 | 0.84 | 0.56 | 83 | 1009.8 |
| 20260506154530 | 8 | 84 | 1.6 | 6.4 | 0.00 | 0.84 | 0.56 | 84 | 1009.9 |
| 20260506153022 | 7 | 97 | 0.0 | 6.4 | 0.00 | 0.84 | 0.56 | 86 | 1010.0 |
| 20260506151531 | 7 | 102 | 0.0 | 6.4 | 0.00 | 0.84 | 0.56 | 85 | 1010.0 |
| 20260506150028 | 7 | 96 | 0.0 | 0.0 | 0.00 | 0.84 | 0.56 | 86 | 1010.1 |
| 20260506144517 | 7 | 92 | 0.0 | 3.2 | 0.00 | 0.84 | 0.56 | 87 | 1010.0 |
| 20260506143035 | 7 | 89 | 0.0 | 6.4 | 0.00 | 0.84 | 0.56 | 89 | 1010.0 |
| 20260506141518 | 6 | 98 | 1.6 | 6.4 | 0.00 | 0.84 | 0.56 | 89 | 1010.0 |
| 20260506140015 | 6 | 99 | 0.0 | 3.2 | 0.00 | 0.84 | 0.56 | 90 | 1010.0 |
| 20260506134514 | 6 | 98 | 1.6 | 6.4 | 0.03 | 0.84 | 0.56 | 91 | 1009.7 |
| 20260506133012 | 6 | 105 | 0.0 | 3.2 | 0.03 | 0.84 | 0.56 | 92 | 1009.6 |
| 20260506131515 | 6 | 82 | 0.0 | 4.8 | 0.03 | 0.84 | 0.56 | 92 | 1009.8 |
| 20260506130009 | 6 | 84 | 0.0 | 9.7 | 0.05 | 0.84 | 0.56 | 92 | 1009.6 |
| 20260506124508 | 6 | 71 | 1.6 | 4.8 | 0.05 | 0.81 | 0.53 | 92 | 1009.4 |
| 20260506123007 | 6 | 360 | 0.0 | 3.2 | 0.05 | 0.81 | 0.53 | 92 | 1009.6 |
| 20260506121507 | 6 | 92 | 0.0 | 0.0 | 0.05 | 0.81 | 0.53 | 92 | 1009.7 |
| 20260506120006 | 6 | 90 | 0.0 | 0.0 | 0.03 | 0.79 | 0.51 | 93 | 1009.6 |
| 20260506114505 | 5 | 91 | 0.0 | 1.6 | 0.00 | 0.79 | 0.51 | 93 | 1009.8 |
| 20260506113003 | 5 | 91 | 0.0 | 1.6 | 0.03 | 0.79 | 0.51 | 92 | 1009.6 |
| 20260506111503 | 5 | 91 | 0.0 | 1.6 | 0.03 | 0.79 | 0.51 | 93 | 1009.3 |
| 20260506110002 | 5 | 91 | 0.0 | 6.4 | 0.03 | 0.79 | 0.51 | 92 | 1008.9 |
| 20260506104617 | 5 | 112 | 1.6 | 3.2 | 0.05 | 0.79 | 0.51 | 92 | 1008.9 |
| 20260506103059 | 5 | 126 | 0.0 | 3.2 | 0.05 | 0.79 | 0.48 | 92 | 1009.1 |
| 20260506101605 | 5 | 128 | 0.0 | 1.6 | 0.08 | 0.79 | 0.48 | 92 | 1009.0 |
| 20260506100058 | 5 | 128 | 0.0 | 0.0 | 0.10 | 0.79 | 0.48 | 92 | 1009.3 |
| 20260506094600 | 5 | 128 | 0.0 | 0.0 | 0.13 | 0.76 | 0.46 | 92 | 1009.4 |
| 20260506093103 | 5 | 128 | 0.0 | 0.0 | 0.13 | 0.71 | 0.43 | 92 | 1009.6 |
| 20260506091556 | 5 | 128 | 0.0 | 0.0 | 0.13 | 0.71 | 0.41 | 92 | 1009.4 |
| 20260506090100 | 5 | 128 | 0.0 | 0.0 | 0.13 | 0.69 | 0.38 | 92 | 1009.4 |
| 20260506084554 | 5 | 128 | 0.0 | 0.0 | 0.13 | 0.64 | 0.33 | 92 | 1009.2 |
| 20260506083054 | 5 | 128 | 0.0 | 0.0 | 0.13 | 0.61 | 0.30 | 92 | 1009.6 |
| 20260506081553 | 5 | 128 | 0.0 | 1.6 | 0.15 | 0.58 | 0.28 | 92 | 1009.7 |
| 20260506073050 | 5 | 156 | 0.0 | 4.8 | 0.10 | 0.48 | 0.18 | 92 | 1009.7 |
| 20260506071604 | 5 | 158 | 0.0 | 3.2 | 0.05 | 0.43 | 0.13 | 92 | 1009.8 |
| 20260506061545 | 5 | 163 | 0.0 | 8.0 | 0.00 | 0.36 | 0.05 | 92 | 1009.8 |